Location: ??????????
(44.2167°N, 135.5333°E)
Time: 14:48:14
(UTC+00:00)

Nadezhda 4 Rocket - Pass Details

Date: 15 June 2025
Orbit: 949 x 990 km, 82.9° (Epoch: 15 July)

Event Time Altitude Azimuth Distance (km) Brightness Sun altitude
Exits shadow 16:19:04 35° 190° (S) 1,512 4.5 -20.0°
Maximum altitude 16:21:54 86° 276° (W) 980 3.9 -19.8°
Drops below altitude 10° 16:28:12 10° 7° (N) 2,739 7.5 -19.4°
Sets 16:30:44 0° 8° (N) 3,696 8.5 -19.2°
